N5TM-4 Weather Reports


Display with metric or nautical units.
time (UTC)temp
F
wind
direction
speed
MPH
gust
MPH
rain 1hr
in
rain 24hr
in
rain mn
in
humidity
%
barometer
mb
20240301013510 54 355 3.0 6.0 0.00 0.00 0.00 56 1022.3
20240301013012 54 355 4.0 6.0 0.00 0.00 0.00 56 1022.2
20240301012510 54 360 3.0 6.0 0.00 0.00 0.00 57 1022.1
20240301012013 54 360 2.0 6.0 0.00 0.00 0.00 57 1021.9
20240301011515 54 360 3.0 6.0 0.00 0.00 0.00 57 1021.8
20240301011010 54 360 2.0 6.0 0.00 0.00 0.00 57 1021.8
20240301010512 54 360 3.0 6.0 0.00 0.00 0.00 58 1021.8
20240301010010 54 5 0.0 6.0 0.00 0.00 0.00 59 1021.7
20240301005513 54 5 3.0 6.0 0.00 0.00 0.00 59 1021.6
20240301005009 54 11 2.0 5.0 0.00 0.00 0.00 60 1021.6
20240301004515 54 16 2.0 8.0 0.00 0.00 0.00 60 1021.5
20240301004008 54 14 1.0 8.0 0.00 0.00 0.00 61 1021.4
20240301003510 54 76 2.0 6.0 0.00 0.00 0.00 61 1021.5
20240301003011 54 78 3.0 6.0 0.00 0.00 0.00 61 1021.5
20240301002509 54 91 1.0 4.0 0.00 0.00 0.00 62 1021.3
20240301002008 54 91 1.0 4.0 0.00 0.00 0.00 62 1021.3
20240301001508 54 90 1.0 8.0 0.00 0.00 0.00 62 1021.3
20240301001008 54 92 1.0 8.0 0.00 0.00 0.00 62 1021.4
20240301000508 54 24 1.0 6.0 0.00 0.00 0.00 62 1021.5
20240301000007 54 22 2.0 5.0 0.00 0.00 0.00 62 1021.5
20240229235506 54 21 1.0 4.0 0.00 0.00 0.00 62 1021.5
20240229235007 54 20 1.0 6.0 0.00 0.00 0.00 62 1021.4
20240229234510 54 20 3.0 6.0 0.00 0.00 0.00 62 1021.4
20240229234007 54 73 2.0 6.0 0.00 0.00 0.00 62 1021.4
20240229233506 54 88 1.0 7.0 0.00 0.00 0.00 63 1021.3
20240229233014 54 88 2.0 7.0 0.00 0.00 0.00 62 1021.3
20240229232510 54 5 2.0 8.0 0.00 0.00 0.00 62 1021.2
20240229232006 54 17 1.0 8.0 0.00 0.00 0.00 62 1021.3
20240229231505 54 355 2.0 8.0 0.00 0.00 0.00 63 1021.3
20240229231006 54 92 3.0 8.0 0.00 0.00 0.00 63 1021.1
20240229230504 54 103 3.0 8.0 0.00 0.00 0.00 63 1021.2
20240229230004 54 90 3.0 8.0 0.00 0.00 0.00 63 1021.4
20240229225503 54 116 2.0 7.0 0.00 0.00 0.00 63 1021.5
20240229225003 54 117 2.0 9.0 0.00 0.00 0.00 63 1021.4
20240229224504 54 116 3.0 9.0 0.00 0.00 0.00 64 1021.6
20240229224003 54 121 3.0 9.0 0.00 0.00 0.00 64 1021.5
20240229223502 54 84 2.0 7.0 0.00 0.00 0.00 64 1021.5
20240229223006 54 86 2.0 10.0 0.00 0.00 0.00 63 1021.6
20240229222503 55 115 4.0 10.0 0.00 0.00 0.00 62 1021.7
20240229222059 55 68 2.0 7.0 0.00 0.00 0.00 61 1021.8
20240229221600 55 81 2.0 6.0 0.00 0.00 0.00 59 1022.0
20240229221058 55 74 2.0 6.0 0.00 0.00 0.00 57 1022.0
20240229220556 55 77 2.0 6.0 0.00 0.00 0.00 55 1021.8
20240229220102 55 77 2.0 6.0 0.00 0.00 0.00 55 1021.9
20240229215553 55 82 2.0 7.0 0.00 0.00 0.00 55 1022.0
20240229215053 55 106 1.0 8.0 0.00 0.00 0.00 55 1022.0
20240229214558 55 109 1.0 8.0 0.00 0.00 0.00 55 1022.0
20240229214053 55 111 4.0 8.0 0.00 0.00 0.00 55 1022.1
20240229213552 55 109 2.0 7.0 0.00 0.00 0.00 55 1022.2
20240229213048 55 108 1.0 7.0 0.00 0.00 0.00 55 1022.2
20240229212547 55 109 3.0 8.0 0.00 0.00 0.00 54 1022.2
20240229212046 55 110 2.0 8.0 0.00 0.00 0.00 54 1022.2
20240229211546 55 111 2.0 8.0 0.00 0.00 0.00 54 1022.4
20240229211045 55 109 2.0 8.0 0.00 0.00 0.00 54 1022.5
20240229210546 55 77 1.0 5.0 0.00 0.00 0.00 55 1022.6
20240229210045 55 77 2.0 5.0 0.00 0.00 0.00 54 1022.7
20240229205542 55 93 1.0 9.0 0.00 0.00 0.00 55 1022.8
20240229205042 55 95 2.0 9.0 0.00 0.00 0.00 54 1022.8
20240229204542 55 104 2.0 8.0 0.00 0.00 0.00 55 1022.9
20240229204041 55 105 1.0 8.0 0.00 0.00 0.00 56 1022.8
20240229203542 55 101 2.0 9.0 0.00 0.00 0.00 55 1022.7
20240229203041 55 116 3.0 9.0 0.00 0.00 0.00 55 1022.9
20240229202542 55 37 1.0 10.0 0.00 0.00 0.00 54 1023.2
20240229202040 55 126 3.0 10.0 0.00 0.00 0.00 54 1023.2
20240229201604 55 5 1.0 4.0 0.00 0.00 0.00 53 1023.3
20240229201036 55 5 1.0 5.0 0.00 0.00 0.00 52 1023.4
20240229200540 55 5 2.0 5.0 0.00 0.00 0.00 51 1023.5
20240229200034 55 360 1.0 5.0 0.00 0.00 0.00 51 1023.4
20240229195534 55 360 1.0 5.0 0.00 0.00 0.00 51 1023.6
20240229195034 55 355 2.0 9.0 0.00 0.00 0.00 50 1023.5
20240229194533 55 350 3.0 9.0 0.00 0.00 0.00 50 1023.8
20240229194034 55 5 2.0 8.0 0.00 0.00 0.00 50 1024.1
20240229193532 55 5 3.0 8.0 0.00 0.00 0.00 50 1024.1
20240229193032 55 9 2.0 8.0 0.00 0.00 0.00 50 1024.1
20240229192530 55 5 3.0 6.0 0.00 0.00 0.00 50 1024.2
20240229192029 55 360 2.0 9.0 0.00 0.00 0.00 50 1024.4
20240229191542 55 5 3.0 9.0 0.00 0.00 0.00 50 1024.6
20240229191030 55 355 2.0 6.0 0.00 0.00 0.00 50 1024.9
20240229190529 55 355 3.0 6.0 0.00 0.00 0.00 49 1024.8
20240229190027 55 355 2.0 8.0 0.00 0.00 0.00 50 1024.9
20240229185528 55 355 3.0 8.0 0.00 0.00 0.00 50 1024.8
20240229185027 55 5 1.0 6.0 0.00 0.00 0.00 49 1024.9
20240229184526 55 11 3.0 6.0 0.00 0.00 0.00 49 1024.9
20240229184027 55 13 2.0 6.0 0.00 0.00 0.00 49 1024.9
20240229183526 56 13 2.0 6.0 0.00 0.00 0.00 49 1025.0
20240229183027 56 340 2.0 9.0 0.00 0.00 0.00 49 1025.0
20240229182524 56 326 3.0 9.0 0.00 0.00 0.00 49 1024.9
20240229182023 56 350 3.0 8.0 0.00 0.00 0.00 49 1025.1
20240229181530 56 346 3.0 8.0 0.00 0.00 0.00 49 1025.2
20240229181020 56 360 2.0 6.0 0.00 0.00 0.00 50 1024.9
20240229180518 56 92 3.0 7.0 0.00 0.00 0.00 49 1025.1
20240229180017 56 101 2.0 7.0 0.00 0.00 0.00 49 1025.0
20240229175519 56 107 1.0 4.0 0.00 0.00 0.00 49 1025.2
20240229175018 56 107 1.0 7.0 0.00 0.00 0.00 50 1025.3
20240229174514 56 107 2.0 7.0 0.00 0.00 0.00 49 1025.4
20240229174013 56 108 2.0 9.0 0.00 0.00 0.00 49 1025.2
20240229173512 56 126 3.0 9.0 0.00 0.00 0.00 49 1025.0
20240229173012 56 5 2.0 11.0 0.00 0.00 0.00 49 1025.0
20240229172510 56 55 3.0 11.0 0.00 0.00 0.00 48 1024.7
20240229172011 56 116 5.0 12.0 0.00 0.00 0.00 48 1024.8
20240229171509 55 131 2.0 12.0 0.00 0.00 0.00 49 1024.8
20240229171012 55 132 2.0 9.0 0.00 0.00 0.00 49 1024.7
20240229170506 55 122 5.0 9.0 0.00 0.00 0.00 48 1024.5
20240229170005 55 119 4.0 9.0 0.00 0.00 0.00 48 1024.9
20240229165503 55 53 3.0 10.0 0.00 0.00 0.00 48 1024.8
20240229165004 54 128 3.0 10.0 0.00 0.00 0.00 47 1024.8
20240229164503 55 112 5.0 10.0 0.00 0.00 0.00 47 1024.6
20240229164003 54 107 2.0 12.0 0.00 0.00 0.00 48 1024.7
20240229163503 54 107 4.0 12.0 0.00 0.00 0.00 48 1024.7
20240229163002 54 134 5.0 11.0 0.00 0.00 0.00 48 1024.8
20240229162503 54 103 5.0 11.0 0.00 0.00 0.00 47 1025.0
20240229162002 54 130 6.0 11.0 0.00 0.00 0.00 47 1025.3
20240229161502 54 121 5.0 11.0 0.00 0.00 0.00 47 1025.1
20240229161003 54 107 2.0 11.0 0.00 0.00 0.00 47 1025.2
20240229160600 54 126 3.0 10.0 0.00 0.00 0.00 47 1025.2
20240229160116 54 110 2.0 11.0 0.00 0.00 0.00 47 1025.1
20240229155557 54 130 4.0 11.0 0.00 0.00 0.00 47 1025.0
20240229155057 54 115 7.0 9.0 0.00 0.00 0.00 47 1025.1
20240229154557 53 119 2.0 11.0 0.00 0.00 0.00 47 1025.2
20240229154101 53 99 3.0 12.0 0.00 0.00 0.00 47 1025.3
20240229153556 53 117 7.0 12.0 0.00 0.00 0.00 47 1025.4
20240229153056 53 112 3.0 11.0 0.00 0.00 0.00 47 1025.5
20240229152556 53 102 6.0 11.0 0.00 0.00 0.00 46 1025.6
20240229152057 53 49 3.0 10.0 0.00 0.00 0.00 46 1025.6
20240229151556 53 140 5.0 10.0 0.00 0.00 0.00 46 1025.4
20240229151056 53 108 2.0 13.0 0.00 0.00 0.00 47 1025.3
20240229150553 53 105 4.0 13.0 0.00 0.00 0.00 47 1025.3
20240229150055 53 111 3.0 9.0 0.00 0.00 0.00 47 1025.3
20240229145555 53 118 4.0 9.0 0.00 0.00 0.00 47 1025.4
20240229145054 53 103 2.0 9.0 0.00 0.00 0.00 47 1025.5
20240229144554 52 85 3.0 10.0 0.00 0.00 0.00 48 1025.6
20240229144050 52 132 6.0 13.0 0.00 0.00 0.00 47 1025.6
20240229143553 52 141 5.0 13.0 0.00 0.00 0.00 47 1025.4
20240229143055 52 117 3.0 8.0 0.00 0.00 0.00 48 1025.5
20240229142550 52 19 1.0 10.0 0.00 0.00 0.00 47 1025.9
20240229142053 52 82 3.0 12.0 0.00 0.00 0.00 47 1025.6
20240229141553 52 87 5.0 12.0 0.00 0.00 0.00 47 1025.4
20240229141048 52 119 2.0 8.0 0.00 0.00 0.00 48 1025.6
20240229140549 52 115 2.0 7.0 0.00 0.00 0.00 48 1025.4
20240229140058 52 31 3.0 12.0 0.00 0.00 0.00 48 1025.7
20240229135547 52 121 3.0 12.0 0.00 0.00 0.00 47 1025.7
20240229135049 52 93 2.0 8.0 0.00 0.00 0.00 48 1025.4
20240229134553 52 56 2.0 10.0 0.00 0.00 0.00 47 1026.2
20240229134046 52 112 3.0 10.0 0.00 0.00 0.00 48 1025.7
20240229133547 52 11 3.0 10.0 0.00 0.00 0.00 48 1026.0
20240229133057 52 46 2.0 9.0 0.00 0.00 0.00 48 1025.8
20240229132546 52 102 2.0 9.0 0.00 0.00 0.00 48 1026.0
20240229132046 52 36 3.0 9.0 0.00 0.00 0.00 48 1025.9
20240229131618 52 55 3.0 10.0 0.00 0.00 0.00 48 1025.6
20240229131045 52 30 4.0 10.0 0.00 0.00 0.00 48 1025.8
20240229130547 52 80 1.0 8.0 0.00 0.00 0.00 49 1025.6
20240229130045 52 32 2.0 9.0 0.00 0.00 0.00 49 1025.8
20240229125547 51 16 3.0 9.0 0.00 0.00 0.00 49 1026.1
20240229125043 51 90 2.0 6.0 0.00 0.00 0.00 50 1025.8
20240229124543 51 91 2.0 7.0 0.00 0.00 0.00 51 1025.6
20240229124045 51 95 2.0 9.0 0.00 0.00 0.00 51 1025.5
20240229123545 51 109 0.0 9.0 0.00 0.00 0.00 51 1025.8
20240229123043 51 110 3.0 8.0 0.00 0.00 0.00 51 1025.2
20240229122543 51 109 3.0 11.0 0.00 0.00 0.00 51 1025.0
20240229122043 51 105 2.0 11.0 0.00 0.00 0.00 52 1025.0
20240229121546 51 52 2.0 8.0 0.00 0.00 0.00 53 1024.5
20240229121046 51 114 4.0 10.0 0.00 0.00 0.00 53 1024.8
20240229120543 51 119 3.0 10.0 0.00 0.00 0.00 53 1025.0
20240229120047 51 122 3.0 9.0 0.00 0.00 0.00 54 1024.9
20240229115540 51 117 2.0 10.0 0.00 0.00 0.00 53 1024.9
20240229115040 51 118 4.0 11.0 0.00 0.00 0.00 53 1024.9
20240229114539 51 90 3.0 11.0 0.00 0.00 0.00 53 1024.5
20240229114038 51 117 3.0 7.0 0.00 0.00 0.00 53 1024.6
20240229113538 51 111 3.0 10.0 0.00 0.00 0.00 53 1024.6
20240229113046 51 360 3.0 10.0 0.00 0.00 0.00 53 1024.9
20240229112538 51 39 2.0 9.0 0.00 0.00 0.00 53 1024.9
20240229112040 51 38 2.0 9.0 0.00 0.00 0.00 53 1025.2
20240229111536 51 45 4.0 9.0 0.00 0.00 0.00 53 1025.1
20240229111037 51 360 3.0 9.0 0.00 0.00 0.00 53 1025.1
20240229110537 51 64 2.0 6.0 0.00 0.00 0.00 53 1025.0
20240229110037 51 9 2.0 8.0 0.00 0.00 0.00 53 1025.3
20240229105536 51 11 3.0 11.0 0.00 0.00 0.00 53 1025.1
20240229105036 51 22 4.0 11.0 0.00 0.00 0.00 53 1025.1
20240229104536 51 34 3.0 9.0 0.00 0.00 0.00 53 1024.8
20240229104038 51 19 2.0 8.0 0.00 0.00 0.00 53 1025.0
20240229103535 51 18 2.0 8.0 0.00 0.00 0.00 54 1024.3
20240229103033 51 23 1.0 10.0 0.00 0.00 0.00 53 1024.5
20240229102538 51 5 2.0 10.0 0.00 0.00 0.00 53 1024.8
20240229102034 51 16 4.0 10.0 0.00 0.00 0.00 53 1024.9
20240229101533 51 9 3.0 10.0 0.00 0.00 0.00 53 1025.1
20240229101035 51 5 2.0 6.0 0.00 0.00 0.00 53 1025.2
20240229100533 51 5 2.0 6.0 0.00 0.00 0.00 53 1025.3
20240229100036 51 43 2.0 6.0 0.00 0.00 0.00 53 1025.1
20240229095532 51 32 2.0 7.0 0.00 0.00 0.00 53 1024.7
20240229095034 51 28 3.0 7.0 0.00 0.00 0.00 53 1025.3
20240229094531 51 360 2.0 8.0 0.00 0.00 0.00 53 1025.2
20240229094031 51 360 3.0 8.0 0.00 0.00 0.00 53 1025.2
20240229093530 51 17 2.0 8.0 0.00 0.00 0.00 53 1025.1
20240229093030 51 17 3.0 9.0 0.00 0.00 0.00 53 1025.1
20240229092532 51 19 3.0 9.0 0.00 0.00 0.00 53 1025.1
20240229092032 51 20 3.0 9.0 0.00 0.00 0.00 52 1025.2
20240229091528 51 343 3.0 9.0 0.00 0.00 0.00 52 1025.3
20240229091027 51 355 4.0 9.0 0.00 0.00 0.00 53 1025.6
20240229090532 51 349 2.0 9.0 0.00 0.00 0.00 53 1025.5
20240229090027 51 360 2.0 10.0 0.00 0.00 0.00 53 1025.7
20240229085527 51 9 4.0 10.0 0.00 0.00 0.00 53 1025.7
20240229085026 51 5 2.0 9.0 0.00 0.00 0.00 53 1025.5
20240229084526 51 13 2.0 9.0 0.00 0.00 0.00 53 1025.9
20240229084026 51 19 2.0 11.0 0.00 0.00 0.00 53 1025.7
20240229083524 51 360 6.0 11.0 0.00 0.00 0.00 52 1026.1
20240229083030 51 17 2.0 9.0 0.00 0.00 0.00 53 1026.2
20240229082523 51 347 2.0 9.0 0.00 0.00 0.00 52 1026.1
20240229082023 52 355 4.0 10.0 0.00 0.00 0.00 52 1026.2
20240229081524 51 344 4.0 10.0 0.00 0.00 0.00 52 1026.2
20240229081022 52 351 5.0 11.0 0.00 0.00 0.00 52 1026.4
20240229080522 52 13 5.0 13.0 0.00 0.00 0.00 52 1026.4
20240229080029 52 342 3.0 14.0 0.00 0.00 0.00 52 1026.6
20240229075521 52 346 3.0 14.0 0.00 0.00 0.00 52 1026.8
20240229075021 52 10 4.0 12.0 0.00 0.00 0.00 52 1026.6
20240229074531 52 21 3.0 11.0 0.00 0.00 0.00 52 1026.9
20240229074019 52 14 5.0 11.0 0.00 0.00 0.00 52 1026.8
20240229073518 52 355 5.0 10.0 0.00 0.00 0.00 52 1026.6
20240229073021 51 333 4.0 10.0 0.00 0.00 0.00 52 1026.7
20240229072517 51 360 3.0 10.0 0.00 0.00 0.00 52 1026.3
20240229072017 51 17 3.0 10.0 0.00 0.00 0.00 52 1026.2
20240229071517 51 355 4.0 9.0 0.00 0.00 0.00 52 1026.0
20240229071017 51 42 3.0 9.0 0.00 0.00 0.00 52 1025.9
20240229070516 51 26 3.0 9.0 0.00 0.00 0.00 52 1025.9
20240229070018 51 360 4.0 9.0 0.00 0.00 0.00 51 1025.9
20240229065515 51 351 5.0 9.0 0.00 0.00 0.00 51 1026.0
20240229065014 51 5 4.0 9.0 0.00 0.00 0.00 51 1026.0
20240229064515 51 13 4.0 10.0 0.00 0.00 0.00 51 1026.2
20240229064014 51 5 4.0 9.0 0.00 0.00 0.00 51 1026.4
20240229063516 51 14 3.0 10.0 0.00 0.00 0.00 51 1026.4
20240229063013 51 22 4.0 11.0 0.00 0.00 0.00 51 1026.6
20240229062515 51 35 3.0 11.0 0.00 0.00 0.00 51 1026.6
20240229062010 51 351 1.0 9.0 0.00 0.00 0.00 51 1026.3
20240229061524 51 28 3.0 9.0 0.00 0.00 0.00 50 1026.3
20240229061008 51 9 4.0 10.0 0.00 0.00 0.00 50 1026.1
20240229060509 51 26 2.0 10.0 0.00 0.00 0.00 50 1026.0
20240229060006 51 12 2.0 11.0 0.00 0.00 0.00 50 1026.1
20240229055506 52 5 4.0 11.0 0.00 0.00 0.00 49 1026.3
20240229055005 52 39 4.0 10.0 0.00 0.00 0.00 49 1026.4
20240229054505 52 34 3.0 10.0 0.00 0.00 0.00 49 1026.3
20240229054009 52 36 3.0 11.0 0.00 0.00 0.00 49 1026.5
20240229053505 52 348 3.0 11.0 0.00 0.00 0.00 49 1026.6
20240229053004 52 25 4.0 9.0 0.00 0.00 0.00 49 1026.6
20240229052504 52 63 2.0 14.0 0.00 0.00 0.00 48 1026.4
20240229052003 52 17 1.0 14.0 0.00 0.00 0.00 48 1026.3
20240229051501 52 24 2.0 11.0 0.00 0.00 0.00 48 1026.2
20240229051001 52 5 3.0 11.0 0.00 0.00 0.00 48 1026.4
20240229050600 52 28 3.0 10.0 0.00 0.00 0.00 47 1026.5
20240229050100 52 17 4.0 12.0 0.00 0.00 0.00 47 1026.4
20240229045600 52 20 4.0 12.0 0.00 0.00 0.00 47 1026.4
20240229045059 52 5 4.0 12.0 0.00 0.00 0.00 47 1026.7
20240229044558 52 5 5.0 12.0 0.00 0.00 0.00 47 1026.7
20240229044056 52 26 3.0 12.0 0.00 0.00 0.00 47 1026.4
20240229043559 52 360 3.0 12.0 0.00 0.00 0.00 47 1026.2
20240229043055 52 355 5.0 11.0 0.00 0.00 0.00 47 1026.0
20240229042556 52 67 5.0 12.0 0.00 0.00 0.00 47 1025.9
20240229042056 52 24 2.0 13.0 0.00 0.00 0.00 47 1026.0
20240229041603 52 46 5.0 13.0 0.00 0.00 0.00 47 1025.9
20240229041052 52 5 3.0 11.0 0.00 0.00 0.00 47 1025.9
20240229040552 53 25 5.0 12.0 0.00 0.00 0.00 46 1025.7
20240229040058 53 14 4.0 12.0 0.00 0.00 0.00 46 1025.8
20240229035552 53 11 7.0 13.0 0.00 0.00 0.00 46 1026.0
20240229035050 53 11 6.0 17.0 0.00 0.00 0.00 46 1025.9
20240229034550 53 360 5.0 17.0 0.00 0.00 0.00 46 1026.0
20240229034049 53 23 5.0 13.0 0.00 0.00 0.00 46 1025.9
20240229033548 53 29 6.0 13.0 0.00 0.00 0.00 46 1025.9
20240229033048 53 12 4.0 13.0 0.00 0.00 0.00 46 1025.8
20240229032547 53 355 7.0 15.0 0.00 0.00 0.00 46 1025.6
20240229032046 53 21 6.0 15.0 0.00 0.00 0.00 46 1025.6
20240229031546 53 355 6.0 18.0 0.00 0.00 0.00 45 1025.8
20240229031045 53 18 7.0 18.0 0.00 0.00 0.00 45 1025.6
20240229030544 53 15 8.0 16.0 0.00 0.00 0.00 46 1025.5
20240229030056 53 50 6.0 15.0 0.00 0.00 0.00 46 1025.6
20240229025545 53 22 6.0 19.0 0.00 0.00 0.00 46 1026.0
20240229025041 54 329 7.0 20.0 0.00 0.00 0.00 47 1025.6
20240229024540 54 360 7.0 20.0 0.00 0.00 0.00 47 1025.4
20240229024038 54 338 5.0 15.0 0.00 0.00 0.00 47 1025.5
20240229023537 54 344 7.0 15.0 0.00 0.00 0.00 47 1025.5
20240229023045 54 326 7.0 16.0 0.00 0.00 0.00 47 1025.6
20240229022535 55 315 9.0 16.0 0.00 0.00 0.00 46 1025.4
20240229022034 55 309 6.0 17.0 0.00 0.00 0.00 46 1025.3
20240229021532 55 340 11.0 17.0 0.00 0.00 0.00 44 1025.5
20240229021033 56 9 7.0 18.0 0.00 0.00 0.00 46 1025.4
20240229020529 56 336 10.0 18.0 0.00 0.00 0.00 46 1025.2
20240229020030 56 29 6.0 16.0 0.00 0.00 0.00 43 1025.2
20240229015527 56 17 8.0 16.0 0.00 0.00 0.00 42 1025.0
20240229015026 57 344 6.0 14.0 0.00 0.00 0.00 43 1025.0
20240229014541 57 329 7.0 16.0 0.00 0.00 0.00 43 1024.9
20240229014024 57 9 8.0 17.0 0.00 0.00 0.00 42 1025.0